User: anonymous   Login
Location: Columbia
(38.9520°N, 92.3340°W)
Time: 13:42:56
(UTC-05:00)
Language:

Cosmos 1603 - Orbit

View from above orbital plane
View from above orbital plane
View from above satellite
View from above satellite

Ground track
Ground track

The orbit data is extracted from the following two-line orbital elements,

1 15333U 84106A   17202.94083605 +.00000029 +00000-0 +39902-4 0  9999
2 15333 071.0274 019.6005 0018664 159.8606 200.3257 14.14061838692933
Epoch (UTC): 21 July 2017 22:34:48
Eccentricity: 0.0018664
inclination: 71.0274°
perigee height: 832 km
apogee height: 859 km
right ascension of ascending node: 19.6005°
argument of perigee: 159.8606°
revolutions per day: 14.14061838
mean anomaly at epoch: 200.3257°
orbit number at epoch: 69293

The dashed part of the orbit path shows where the satellite is in the earth's shadow,  

DLR